Weather History for KNBT - October, 2013

Change the Weather History Date:

Friday, October 18, 2013

  Actual Average (KMRH) Record (KMRH)
Temperature  
Mean Temperature 70 °F -  
Max Temperature 73 °F 75 °F 87 °F (1990)
Min Temperature 68 °F 55 °F 33 °F (1970)
Cooling Degree Days 6    
Growing Degree Days 20 (Base 50)    
Moisture  
Dew Point 66 °F    
Average Humidity 86    
Maximum Humidity 96    
Minimum Humidity 61    
Precipitation  
Precipitation 0.16 in - - ()
Sea Level Pressure  
Sea Level Pressure 29.98 in    
Wind  
Wind Speed 7 mph (NE)    
Max Wind Speed 12 mph    
Max Gust Speed -    
Visibility 8 miles    
Events Rain    
Averages and records for this station are not official NWS values.
T = Trace of Precipitation, MM = Missing Value Source: NWS Daily Summary

Daily Weather History Graph

Daily Weather History Graph

Search for Another Location

Airport or City:

Trip Planner

Search our weather history database for the weather conditions in past years. The results will help you decide how hot, cold, wet, or windy it might be!

Date:

Astronomy

Oct. 18, 2013 Rise Set
Actual Time 7:14 AM EDT 6:26 PM EDT
Civil Twilight 6:48 AM EDT 6:52 PM EDT
Nautical Twilight 6:19 AM EDT 7:21 PM EDT
Astronomical Twilight 5:50 AM EDT 7:51 PM EDT
Moon 6:16 PM EDT (10/18) 6:47 AM EDT (10/18)
Length of Visible Light 12h 03m
Length of Day
11h 12m
Full, 100% of the Moon is Illuminated
Oct 18
Full
Oct 18
Full
Oct 26
Last Quarter
Nov 3
New
Nov 10
First Quarter

Hourly Weather History & Observations

Time (EDT) Temp. Dew Point Humidity Pressure Visibility Wind Dir Wind Speed Gust Speed Precip Events Conditions
12:56 AM 70.0 °F 68.0 °F 93% 29.91 in 9.0 mi SW 5.8 mph - N/A   Clear
1:56 AM 70.0 °F 68.0 °F 93% 29.91 in 9.0 mi SW 3.5 mph - N/A   Mostly Cloudy
2:56 AM 71.1 °F 69.1 °F 93% 29.91 in 9.0 mi SW 5.8 mph - N/A   Mostly Cloudy
3:56 AM 70.0 °F 68.0 °F 93% 29.91 in 9.0 mi WSW 5.8 mph - N/A   Clear
4:56 AM 70.0 °F 66.9 °F 90% 29.92 in 9.0 mi WSW 4.6 mph - N/A   Partly Cloudy
5:56 AM 69.1 °F 66.9 °F 93% 29.93 in 6.0 mi West 4.6 mph - N/A   Mostly Cloudy
6:56 AM 70.0 °F 66.9 °F 90% 29.94 in 6.0 mi West 3.5 mph - N/A   Overcast
7:56 AM 70.0 °F 68.0 °F 93% 29.98 in 5.0 mi West 5.8 mph - N/A   Overcast
8:56 AM 71.1 °F 68.0 °F 90% 30.00 in 7.0 mi NNW 5.8 mph - N/A   Overcast
9:56 AM 71.1 °F 64.9 °F 81% 30.02 in 8.0 mi North 10.4 mph - N/A   Overcast
10:56 AM 72.0 °F 64.9 °F 78% 30.02 in 9.0 mi NNE 11.5 mph - N/A   Mostly Cloudy
11:56 AM 72.0 °F 57.9 °F 61% 30.03 in 10.0 mi NNE 8.1 mph - N/A   Overcast
12:56 PM 73.9 °F 62.1 °F 66% 30.01 in 10.0 mi North 8.1 mph - 0.00 in   Partly Cloudy
1:56 PM 72.0 °F 63.0 °F 73% 30.00 in 10.0 mi Variable 6.9 mph - N/A   Overcast
3:56 PM 73.0 °F 64.9 °F 76% 29.99 in 10.0 mi ENE 9.2 mph - N/A   Mostly Cloudy
4:56 PM 71.1 °F 64.0 °F 78% 29.98 in 10.0 mi ENE 10.4 mph - N/A   Overcast
5:56 PM 70.0 °F 64.0 °F 81% 29.99 in 10.0 mi ENE 11.5 mph - N/A   Mostly Cloudy
6:16 PM 70.0 °F 64.9 °F 84% 29.98 in 10.0 mi ENE 10.4 mph - N/A   Overcast
6:56 PM 70.0 °F 66.0 °F 87% 30.00 in 10.0 mi East 11.5 mph - 0.00 in Rain Light Rain
7:03 PM 70.0 °F 66.0 °F 87% 29.99 in 10.0 mi East 10.4 mph - 0.00 in   Overcast
7:28 PM 70.0 °F 66.0 °F 87% 29.99 in 9.0 mi East 8.1 mph - 0.00 in Rain Light Rain
7:56 PM 70.0 °F 66.0 °F 87% 30.01 in 10.0 mi ENE 9.2 mph - 0.00 in Rain Light Rain
8:14 PM 69.1 °F 66.0 °F 90% 30.00 in 3.0 mi East 8.1 mph - 0.06 in Rain Rain
8:53 PM 68.0 °F 66.9 °F 96% 30.01 in 6.0 mi ENE 9.2 mph - 0.12 in Rain Light Rain
9:33 PM 68.0 °F 66.9 °F 96% 30.00 in 5.0 mi ENE 10.4 mph - 0.03 in Rain Light Rain
9:56 PM 68.0 °F 66.9 °F 96% 30.01 in 5.0 mi East 10.4 mph - 0.04 in Rain Light Rain
10:56 PM 69.1 °F 66.9 °F 93% 30.01 in 9.0 mi ENE 9.2 mph - 0.00 in Rain Light Rain
11:56 PM 69.1 °F 68.0 °F 96% 29.99 in 9.0 mi East 8.1 mph - 0.00 in   Overcast